User: anonymous   Login
Location: Edoum�
(0.9447°N, 10.6482°E)
Time: 17:51:26
(UTC+00:00)
Language:

Cosmos 2278 Rocket - Orbit

View from above orbital plane
View from above orbital plane
View from above satellite
View from above satellite

Ground track
Ground track

The orbit data is extracted from the following two-line orbital elements,

1 23088U 94023B   20221.51359891  .00000185  00000-0  12104-3 0  9992
2 23088  70.9987  31.8503 0003203 191.8004 168.3044 14.14687848357949
Epoch (UTC): 08 August 2020 12:19:34
Eccentricity: 0.0003203
inclination: 70.9987°
perigee height: 841 km
apogee height: 845 km
right ascension of ascending node: 31.8503°
argument of perigee: 191.8004°
revolutions per day: 14.14687848
mean anomaly at epoch: 168.3044°
orbit number at epoch: 35794

The dashed part of the orbit path shows where the satellite is in the earth's shadow,  

DLR